Location: Alsip
(41.6689°N, 87.7387°W)
Time: 14:28:23
(UTC+00:00)

Cosmos 1782 - Pass Details

Date: 14 July 2020
Orbit: 536 x 553 km, 82.5° (Epoch: 04 August)

Event Time Altitude Azimuth Distance (km) Brightness Sun altitude
Rises 05:27:55 0° 344° (NNW) 2,697 7.6 -26.4°
Reaches altitude 10° 05:30:10 10° 337° (NNW) 1,801 6.4 -26.4°
Enters shadow 05:32:55 34° 302° (WNW) 906 4.1 -26.5°
